TVF31NY LFBO-DAOO

Flight info

Callsign TVF31NY
Flight time 1h 20m
Altitude 33000
Route GAUDE DCT ANETO N860 VLC P34 HAMRA UA34 BAHRI DCT MOS DCT ORA
Aircraft B738/M-SDE2E3FGHIRWXY/LB1

Departure

Time 2026-04-22 11:49
Airport Toulouse-Blagnac Airport (LFBO)

Arrival

Time 2026-04-22 13:10
Airport Oran Es-Sénia (Ahmed Ben Bella) International Airport (DAOO)
Time Latitude Longitude Altitude Speed Heading
2026-04-22 11:47 43.64443 1.35322 489 ft 23 kts 304°
2026-04-22 11:47 43.64498 1.35119 487 ft 22 kts 289°
2026-04-22 11:47 43.64544 1.34922 488 ft 20 kts 276°
2026-04-22 11:48 43.64488 1.34759 485 ft 19 kts 230°
2026-04-22 11:48 43.64396 1.34636 493 ft 18 kts 189°
2026-04-22 11:48 43.64289 1.34721 491 ft 22 kts 143°
2026-04-22 11:48 43.63989 1.35034 491 ft 90 kts 143°
2026-04-22 11:49 43.63313 1.35736 498 ft 150 kts 143°
2026-04-22 11:49 43.62417 1.36652 1037 ft 161 kts 140°
2026-04-22 11:49 43.61494 1.37623 1816 ft 162 kts 140°
2026-04-22 11:49 43.60609 1.38531 2593 ft 169 kts 142°
2026-04-22 11:50 43.59588 1.39570 2853 ft 193 kts 142°
2026-04-22 11:50 43.58453 1.40760 3032 ft 214 kts 142°
2026-04-22 11:50 43.57194 1.42047 3173 ft 234 kts 142°
2026-04-22 11:50 43.55832 1.43450 3341 ft 256 kts 142°
2026-04-22 11:51 43.54366 1.44938 3588 ft 272 kts 145°
2026-04-22 11:51 43.52772 1.46474 4101 ft 285 kts 142°
2026-04-22 11:51 43.51181 1.48174 4614 ft 294 kts 141°
2026-04-22 11:51 43.49469 1.49739 5230 ft 293 kts 163°
2026-04-22 11:52 43.47486 1.50008 5950 ft 283 kts 195°
2026-04-22 11:52 43.45724 1.49053 6662 ft 274 kts 219°
2026-04-22 11:52 43.44390 1.47231 7321 ft 266 kts 240°
2026-04-22 11:52 43.43592 1.44986 8068 ft 262 kts 256°
2026-04-22 11:53 43.43410 1.42481 8663 ft 265 kts 267°
2026-04-22 11:53 43.43098 1.39983 9428 ft 265 kts 253°
2026-04-22 11:53 43.42421 1.37616 10085 ft 269 kts 245°
2026-04-22 11:53 43.41511 1.35315 10320 ft 288 kts 236°
2026-04-22 11:54 43.40208 1.33087 10482 ft 309 kts 229°
2026-04-22 11:54 43.38690 1.30860 10664 ft 328 kts 227°
2026-04-22 11:54 43.37064 1.28534 10942 ft 341 kts 227°
2026-04-22 11:54 43.35415 1.26159 11534 ft 344 kts 227°
2026-04-22 11:55 43.33762 1.23757 12192 ft 347 kts 227°
2026-04-22 11:55 43.32120 1.21348 12742 ft 352 kts 230°
2026-04-22 11:55 43.30834 1.18486 13388 ft 353 kts 249°
2026-04-22 11:55 43.30292 1.15206 14085 ft 355 kts 266°
2026-04-22 11:56 43.30340 1.11788 14664 ft 360 kts 271°
2026-04-22 11:56 43.30487 1.08330 15225 ft 364 kts 272°
2026-04-22 11:56 43.30621 1.04845 15866 ft 366 kts 272°
2026-04-22 11:56 43.30734 1.01374 16480 ft 369 kts 272°
2026-04-22 11:57 43.30715 0.97847 17053 ft 372 kts 261°
2026-04-22 11:57 43.29883 0.94471 17627 ft 378 kts 243°
2026-04-22 11:57 43.28349 0.91520 18205 ft 385 kts 227°
2026-04-22 11:57 43.26241 0.89167 18675 ft 393 kts 219°
2026-04-22 11:58 43.24030 0.87015 19154 ft 396 kts 218°
2026-04-22 11:58 43.21755 0.84848 19654 ft 399 kts 218°
2026-04-22 11:58 43.19476 0.82673 20192 ft 400 kts 218°
2026-04-22 11:58 43.17181 0.80463 20650 ft 404 kts 218°
2026-04-22 11:59 43.14873 0.78221 21080 ft 408 kts 218°
2026-04-22 11:59 43.12550 0.75953 21531 ft 411 kts 218°
2026-04-22 11:59 43.10243 0.73696 22007 ft 413 kts 218°
2026-04-22 11:59 43.07892 0.71397 22445 ft 416 kts 218°
2026-04-22 12:00 43.05520 0.69080 22851 ft 420 kts 218°
2026-04-22 12:00 43.03123 0.66741 23274 ft 423 kts 218°
2026-04-22 12:00 43.01528 0.65194 23553 ft 426 kts 217°
2026-04-22 12:00 42.97898 0.62990 23931 ft 440 kts 194°
2026-04-22 12:01 42.94880 0.62227 24367 ft 441 kts 193°
2026-04-22 12:01 42.91847 0.61505 24743 ft 443 kts 193°
2026-04-22 12:01 42.89821 0.61018 24981 ft 445 kts 193°
2026-04-22 12:01 42.86767 0.60268 25313 ft 447 kts 193°
2026-04-22 12:02 42.83695 0.59496 25673 ft 449 kts 193°
2026-04-22 12:02 42.79603 0.58450 26121 ft 453 kts 193°
2026-04-22 12:02 42.77545 0.57919 26326 ft 454 kts 194°
2026-04-22 12:02 42.74399 0.57107 26675 ft 456 kts 193°
2026-04-22 12:03 42.71308 0.56314 27013 ft 458 kts 193°
2026-04-22 12:03 42.68155 0.55506 27285 ft 460 kts 194°
2026-04-22 12:03 42.64991 0.54695 27579 ft 462 kts 193°
2026-04-22 12:03 42.61815 0.53882 27892 ft 464 kts 193°
2026-04-22 12:04 42.58671 0.53079 28213 ft 465 kts 194°
2026-04-22 12:04 42.55475 0.52261 28532 ft 467 kts 193°
2026-04-22 12:04 42.52277 0.51444 28831 ft 468 kts 193°
2026-04-22 12:04 42.49083 0.50628 29266 ft 466 kts 194°
2026-04-22 12:05 42.45902 0.49817 29700 ft 464 kts 193°
2026-04-22 12:05 42.42726 0.49009 30093 ft 463 kts 193°
2026-04-22 12:05 42.39595 0.48213 30396 ft 463 kts 193°
2026-04-22 12:05 42.36417 0.47405 30640 ft 464 kts 193°
2026-04-22 12:06 42.33236 0.46593 30965 ft 463 kts 193°
2026-04-22 12:06 42.30075 0.45785 31337 ft 461 kts 193°
2026-04-22 12:06 42.26923 0.44979 31656 ft 460 kts 193°
2026-04-22 12:06 42.23778 0.44175 31961 ft 459 kts 193°
2026-04-22 12:07 42.20685 0.43386 32249 ft 458 kts 193°
2026-04-22 12:07 42.17539 0.42585 32529 ft 458 kts 194°
2026-04-22 12:07 42.14407 0.41788 32863 ft 456 kts 194°
2026-04-22 12:07 42.11280 0.40993 32980 ft 459 kts 194°
2026-04-22 12:08 42.04977 0.39393 32983 ft 460 kts 194°
2026-04-22 12:08 41.98749 0.37816 32954 ft 455 kts 193°
2026-04-22 12:09 41.92531 0.36248 32963 ft 456 kts 193°
2026-04-22 12:09 41.86265 0.34675 32971 ft 458 kts 193°
2026-04-22 12:10 41.80020 0.33108 32972 ft 459 kts 193°
2026-04-22 12:10 41.73713 0.31529 32968 ft 460 kts 193°
2026-04-22 12:11 41.67405 0.29964 32967 ft 460 kts 193°
2026-04-22 12:11 41.61132 0.28413 32969 ft 460 kts 193°
2026-04-22 12:12 41.54830 0.26857 32957 ft 460 kts 193°
2026-04-22 12:12 41.48534 0.25304 32975 ft 458 kts 193°
2026-04-22 12:13 41.42259 0.23758 32968 ft 457 kts 193°
2026-04-22 12:13 41.36040 0.22230 32966 ft 456 kts 193°
2026-04-22 12:14 41.29796 0.20667 32967 ft 455 kts 193°
2026-04-22 12:14 41.23569 0.19095 32964 ft 454 kts 193°
2026-04-22 12:15 41.17382 0.17577 32972 ft 454 kts 193°
2026-04-22 12:15 41.11190 0.15918 32952 ft 451 kts 198°
2026-04-22 12:16 41.05189 0.13495 32958 ft 451 kts 200°
2026-04-22 12:16 40.99236 0.11011 32961 ft 451 kts 200°
2026-04-22 12:17 40.93207 0.08587 32976 ft 452 kts 199°
2026-04-22 12:17 40.87167 0.06188 32976 ft 453 kts 199°
2026-04-22 12:18 40.81166 0.03781 32967 ft 453 kts 200°
2026-04-22 12:18 40.75117 0.01342 32963 ft 454 kts 200°
2026-04-22 12:19 40.69066 -0.01089 32971 ft 454 kts 199°
2026-04-22 12:19 40.63013 -0.03515 32968 ft 455 kts 199°
2026-04-22 12:20 40.56988 -0.05924 32991 ft 455 kts 199°
2026-04-22 12:20 40.50901 -0.08341 33011 ft 457 kts 199°
2026-04-22 12:21 40.44800 -0.10746 33014 ft 457 kts 200°
2026-04-22 12:21 40.38695 -0.13151 33031 ft 458 kts 200°
2026-04-22 12:22 40.32628 -0.15540 33043 ft 457 kts 200°
2026-04-22 12:22 40.26519 -0.17939 33033 ft 457 kts 199°
2026-04-22 12:23 40.20421 -0.20343 33020 ft 456 kts 199°
2026-04-22 12:23 40.14368 -0.22736 33022 ft 456 kts 200°
2026-04-22 12:24 40.08279 -0.25140 33004 ft 456 kts 199°
2026-04-22 12:24 40.02231 -0.27522 32960 ft 456 kts 200°
2026-04-22 12:25 39.96131 -0.29899 32975 ft 456 kts 199°
2026-04-22 12:25 39.90035 -0.32239 32967 ft 456 kts 199°
2026-04-22 12:26 39.83974 -0.34586 32964 ft 456 kts 199°
2026-04-22 12:26 39.77875 -0.36963 32963 ft 456 kts 200°
2026-04-22 12:27 39.71822 -0.39318 32968 ft 456 kts 200°
2026-04-22 12:27 39.65722 -0.41683 32972 ft 456 kts 199°
2026-04-22 12:28 39.59666 -0.44027 32963 ft 457 kts 199°
2026-04-22 12:28 39.53565 -0.46384 32967 ft 456 kts 200°
2026-04-22 12:29 39.47342 -0.47870 32971 ft 462 kts 184°
2026-04-22 12:29 39.40909 -0.47059 32974 ft 465 kts 174°
2026-04-22 12:30 39.31325 -0.45184 32957 ft 465 kts 174°
2026-04-22 12:31 39.24902 -0.44033 32965 ft 465 kts 175°
2026-04-22 12:31 39.18520 -0.42891 32967 ft 465 kts 175°
2026-04-22 12:32 39.12099 -0.41735 32975 ft 465 kts 175°
2026-04-22 12:32 39.02467 -0.40004 33010 ft 465 kts 175°
2026-04-22 12:33 38.96075 -0.38859 33031 ft 466 kts 175°
2026-04-22 12:33 38.89644 -0.37710 33049 ft 466 kts 175°
2026-04-22 12:34 38.83205 -0.36561 33047 ft 466 kts 175°
2026-04-22 12:34 38.76807 -0.35421 33047 ft 465 kts 175°
2026-04-22 12:35 38.70380 -0.34279 33044 ft 465 kts 175°
2026-04-22 12:35 38.64004 -0.33147 32990 ft 465 kts 175°
2026-04-22 12:36 38.57603 -0.32013 33001 ft 465 kts 175°
2026-04-22 12:36 38.51179 -0.30877 32995 ft 465 kts 175°
2026-04-22 12:37 38.44754 -0.29743 33002 ft 465 kts 175°
2026-04-22 12:37 38.38331 -0.28611 33001 ft 465 kts 175°
2026-04-22 12:38 38.31948 -0.27483 33001 ft 465 kts 175°
2026-04-22 12:38 38.25517 -0.26336 33002 ft 465 kts 175°
2026-04-22 12:39 38.15932 -0.24630 33000 ft 465 kts 175°
2026-04-22 12:40 38.09507 -0.23491 33004 ft 465 kts 175°
2026-04-22 12:40 38.03083 -0.22356 33006 ft 466 kts 175°
2026-04-22 12:41 37.96697 -0.21231 33003 ft 466 kts 175°
2026-04-22 12:41 37.90261 -0.20111 33000 ft 466 kts 175°
2026-04-22 12:42 37.83860 -0.19000 33003 ft 466 kts 175°
2026-04-22 12:42 37.77426 -0.17885 33003 ft 466 kts 175°
2026-04-22 12:43 37.70999 -0.16772 32997 ft 466 kts 175°
2026-04-22 12:43 37.64563 -0.15658 33004 ft 466 kts 175°
2026-04-22 12:44 37.58167 -0.14554 33008 ft 466 kts 175°
2026-04-22 12:44 37.51716 -0.13442 33008 ft 467 kts 175°
2026-04-22 12:45 37.45274 -0.12334 32999 ft 467 kts 175°
2026-04-22 12:45 37.38861 -0.11232 33011 ft 467 kts 175°
2026-04-22 12:46 37.32388 -0.10123 32474 ft 474 kts 175°
2026-04-22 12:46 37.29120 -0.09564 31897 ft 471 kts 174°
2026-04-22 12:46 37.25878 -0.09008 31466 ft 465 kts 175°
2026-04-22 12:46 37.22705 -0.08464 30976 ft 461 kts 174°
2026-04-22 12:47 37.19537 -0.07923 30518 ft 457 kts 174°
2026-04-22 12:47 37.16394 -0.07387 30057 ft 453 kts 174°
2026-04-22 12:47 37.13279 -0.06856 29529 ft 449 kts 174°
2026-04-22 12:47 37.10196 -0.06330 29037 ft 444 kts 174°
2026-04-22 12:48 37.07189 -0.05817 28578 ft 440 kts 174°
2026-04-22 12:48 37.04158 -0.05300 28102 ft 435 kts 174°
2026-04-22 12:48 37.01164 -0.04790 27641 ft 432 kts 174°
2026-04-22 12:48 36.99190 -0.04454 27330 ft 429 kts 174°
2026-04-22 12:49 36.95280 -0.03789 26721 ft 425 kts 174°
2026-04-22 12:49 36.93306 -0.03453 26418 ft 423 kts 174°
2026-04-22 12:49 36.89463 -0.02801 25830 ft 419 kts 174°
2026-04-22 12:49 36.87505 -0.02468 25523 ft 417 kts 174°
2026-04-22 12:50 36.84676 -0.01996 25087 ft 414 kts 175°
2026-04-22 12:50 36.81825 -0.01532 24645 ft 412 kts 175°
2026-04-22 12:50 36.78991 -0.01074 24206 ft 410 kts 175°
2026-04-22 12:50 36.76156 -0.00617 23749 ft 408 kts 175°
2026-04-22 12:51 36.73335 -0.00163 23231 ft 407 kts 174°
2026-04-22 12:51 36.70543 0.00289 22749 ft 404 kts 175°
2026-04-22 12:51 36.67789 0.00734 22289 ft 401 kts 175°
2026-04-22 12:51 36.65030 0.01180 21840 ft 397 kts 175°
2026-04-22 12:52 36.62294 0.01623 21399 ft 394 kts 175°
2026-04-22 12:52 36.59574 0.02062 20963 ft 391 kts 175°
2026-04-22 12:52 36.56912 0.02492 20536 ft 389 kts 175°
2026-04-22 12:52 36.54234 0.02924 20099 ft 386 kts 175°
2026-04-22 12:53 36.51576 0.03353 19678 ft 384 kts 175°
2026-04-22 12:53 36.48929 0.03779 19247 ft 382 kts 175°
2026-04-22 12:53 36.46286 0.04204 18820 ft 380 kts 175°
2026-04-22 12:53 36.43701 0.04620 18390 ft 378 kts 175°
2026-04-22 12:54 36.41090 0.05040 17909 ft 377 kts 175°
2026-04-22 12:54 36.38492 0.05457 17451 ft 374 kts 175°
2026-04-22 12:54 36.35906 0.05873 17009 ft 372 kts 175°
2026-04-22 12:54 36.33347 0.06283 16579 ft 369 kts 175°
2026-04-22 12:55 36.30811 0.06690 16158 ft 366 kts 175°
2026-04-22 12:55 36.28318 0.07094 15743 ft 364 kts 174°
2026-04-22 12:55 36.25817 0.07516 15330 ft 362 kts 174°
2026-04-22 12:55 36.23325 0.07943 14903 ft 360 kts 174°
2026-04-22 12:56 36.20850 0.08368 14497 ft 358 kts 174°
2026-04-22 12:56 36.18388 0.08790 14082 ft 356 kts 174°
2026-04-22 12:56 36.15929 0.09210 13643 ft 355 kts 174°
2026-04-22 12:56 36.13482 0.09627 13193 ft 353 kts 174°
2026-04-22 12:57 36.11087 0.10034 12761 ft 351 kts 173°
2026-04-22 12:57 36.08669 0.10445 12306 ft 350 kts 173°
2026-04-22 12:57 36.06257 0.10854 11884 ft 348 kts 173°
2026-04-22 12:57 36.03856 0.11261 11468 ft 346 kts 173°
2026-04-22 12:58 36.01471 0.11666 11061 ft 344 kts 173°
2026-04-22 12:58 35.99102 0.12067 10723 ft 341 kts 173°
2026-04-22 12:58 35.96788 0.12459 10572 ft 331 kts 173°
2026-04-22 12:58 35.94531 0.12841 10414 ft 323 kts 173°
2026-04-22 12:59 35.92355 0.12954 10258 ft 313 kts 191°
2026-04-22 12:59 35.90371 0.12023 10142 ft 302 kts 214°
2026-04-22 12:59 35.88813 0.10332 9939 ft 297 kts 232°
2026-04-22 12:59 35.87764 0.08218 9973 ft 283 kts 243°
2026-04-22 13:00 35.86915 0.06014 9417 ft 292 kts 245°
2026-04-22 13:00 35.86083 0.03713 9016 ft 294 kts 245°
2026-04-22 13:00 35.85261 0.01429 8697 ft 293 kts 245°
2026-04-22 13:00 35.84429 -0.00861 8352 ft 288 kts 245°
2026-04-22 13:01 35.83616 -0.03081 8058 ft 280 kts 244°
2026-04-22 13:01 35.82829 -0.05216 7777 ft 272 kts 244°
2026-04-22 13:01 35.82045 -0.07330 7502 ft 269 kts 244°
2026-04-22 13:01 35.81266 -0.09423 7235 ft 268 kts 244°
2026-04-22 13:02 35.80489 -0.11506 6961 ft 267 kts 244°
2026-04-22 13:02 35.79712 -0.13584 6674 ft 267 kts 244°
2026-04-22 13:02 35.78933 -0.15668 6382 ft 267 kts 244°
2026-04-22 13:02 35.78154 -0.17748 6085 ft 267 kts 244°
2026-04-22 13:03 35.77388 -0.19791 5801 ft 266 kts 244°
2026-04-22 13:03 35.76617 -0.21847 5610 ft 261 kts 244°
2026-04-22 13:03 35.75864 -0.23855 5472 ft 254 kts 243°
2026-04-22 13:03 35.75132 -0.25804 5349 ft 247 kts 244°
2026-04-22 13:04 35.74420 -0.27697 5248 ft 239 kts 243°
2026-04-22 13:04 35.73661 -0.29482 5144 ft 232 kts 241°
2026-04-22 13:04 35.72955 -0.31245 5039 ft 224 kts 244°
2026-04-22 13:04 35.72332 -0.32965 4863 ft 225 kts 245°
2026-04-22 13:05 35.71722 -0.34727 4631 ft 222 kts 245°
2026-04-22 13:05 35.71125 -0.36469 4324 ft 220 kts 246°
2026-04-22 13:05 35.70537 -0.38191 4038 ft 215 kts 245°
2026-04-22 13:05 35.69960 -0.39880 3763 ft 212 kts 246°
2026-04-22 13:06 35.69394 -0.41537 3495 ft 208 kts 246°
2026-04-22 13:06 35.68846 -0.43141 3235 ft 204 kts 245°
2026-04-22 13:06 35.68306 -0.44722 2991 ft 198 kts 246°
2026-04-22 13:06 35.67776 -0.46273 2735 ft 195 kts 246°
2026-04-22 13:07 35.67255 -0.47799 2470 ft 191 kts 247°
2026-04-22 13:07 35.66744 -0.49299 2217 ft 188 kts 247°
2026-04-22 13:07 35.66243 -0.50767 1961 ft 183 kts 248°
2026-04-22 13:07 35.65764 -0.52174 1739 ft 172 kts 248°
2026-04-22 13:08 35.65324 -0.53464 1554 ft 160 kts 248°
2026-04-22 13:08 35.64895 -0.54725 1313 ft 158 kts 248°
2026-04-22 13:08 35.64474 -0.55962 1092 ft 155 kts 249°
2026-04-22 13:08 35.64057 -0.57172 909 ft 154 kts 249°
2026-04-22 13:09 35.63654 -0.58374 709 ft 150 kts 250°
2026-04-22 13:09 35.63247 -0.59549 508 ft 154 kts 251°
2026-04-22 13:09 35.62837 -0.60783 332 ft 155 kts 251°
2026-04-22 13:09 35.62456 -0.61902 307 ft 119 kts 249°
2026-04-22 13:10 35.62217 -0.62594 309 ft 56 kts 247°
2026-04-22 13:10 35.62110 -0.62908 308 ft 25 kts 246°
2026-04-22 13:10 35.61975 -0.62972 308 ft 23 kts 158°
2026-04-22 13:10 35.61827 -0.62899 308 ft 23 kts 157°
2026-04-22 13:11 35.61684 -0.62824 310 ft 22 kts 154°
2026-04-22 13:11 35.61613 -0.62674 309 ft 21 kts 89°
2026-04-22 13:11 35.61661 -0.62505 308 ft 21 kts 67°
2026-04-22 13:11 35.61716 -0.62345 309 ft 20 kts 66°
2026-04-22 13:12 35.61770 -0.62189 309 ft 19 kts 67°
2026-04-22 13:12 35.61821 -0.62040 308 ft 19 kts 66°
2026-04-22 13:12 35.61871 -0.61894 309 ft 18 kts 67°
2026-04-22 13:12 35.61918 -0.61753 308 ft 18 kts 67°
2026-04-22 13:13 35.61965 -0.61617 308 ft 17 kts 67°
2026-04-22 13:13 35.62010 -0.61486 309 ft 16 kts 67°
2026-04-22 13:13 35.62053 -0.61360 309 ft 16 kts 67°
2026-04-22 13:13 35.62093 -0.61241 308 ft 15 kts 68°
2026-04-22 13:14 35.62132 -0.61126 308 ft 14 kts 67°
2026-04-22 13:14 35.62141 -0.61016 308 ft 14 kts 133°
2026-04-22 13:14 35.62104 -0.60914 309 ft 14 kts 74°
2026-04-22 13:14 35.62132 -0.60811 309 ft 10 kts 102°
2026-04-22 13:15 35.62099 -0.60782 309 ft 2 kts 153°
2026-04-22 13:15 35.62086 -0.60782 309 ft 2 kts 188°
2026-04-22 13:15 35.62085 -0.60783 309 ft 0 kts 190°
2026-04-22 13:15 35.62084 -0.60783 309 ft 0 kts 191°